Weather History for KCMD - November, 2013

Change the Weather History Date:

Tuesday, November 5, 2013

  Actual Average Record
Temperature  
Mean Temperature 54 °F -  
Max Temperature 62 °F - - ()
Min Temperature 47 °F - - ()
Degree Days  
Heating Degree Days 10    
Growing Degree Days 4 (Base 50)    
Moisture  
Dew Point 38 °F    
Average Humidity 56    
Maximum Humidity 63    
Minimum Humidity 45    
Precipitation  
Precipitation 0.00 in - - ()
Sea Level Pressure  
Sea Level Pressure 30.34 in    
Wind  
Wind Speed 7 mph (ESE)    
Max Wind Speed 10 mph    
Max Gust Speed 18 mph    
Visibility 10 miles    
Events      
Averages and records for this station are not official NWS values.
T = Trace of Precipitation, MM = Missing Value Source: NWS Daily Summary

Daily Weather History Graph

Daily Weather History Graph

Search for Another Location

Airport or City:

Trip Planner

Search our weather history database for the weather conditions in past years. The results will help you decide how hot, cold, wet, or windy it might be!

Date:

Astronomy

Nov. 05, 2013 Rise Set
Actual Time 6:11 AM CST 4:50 PM CST
Civil Twilight 5:45 AM CST 5:16 PM CST
Nautical Twilight 5:15 AM CST 5:46 PM CST
Astronomical Twilight 4:45 AM CST 6:15 PM CST
Moon 8:22 AM CST (11/5) 6:55 PM CST (11/5)
Length of Visible Light 11h 31m
Length of Day
10h 39m
Waxing Crescent, 7% of the Moon is Illuminated
Nov 5
Waxing Crescent
Nov 9
First Quarter
Nov 17
Full
Nov 25
Last Quarter
Dec 2
New

Hourly Weather History & Observations

Time (CST) Temp. Dew Point Humidity Pressure Visibility Wind Dir Wind Speed Gust Speed Precip Events Conditions
12:15 AM 50.4 °F 36.5 °F 59% 30.37 in 10.0 mi ESE 5.8 mph - N/A   Clear
12:35 AM 50.2 °F 36.3 °F 59% 30.37 in 10.0 mi ESE 4.6 mph - N/A   Clear
12:55 AM 50.0 °F 36.1 °F 59% 30.37 in 10.0 mi ESE 5.8 mph - N/A   Clear
1:15 AM 50.0 °F 36.1 °F 59% 30.37 in 10.0 mi ESE 6.9 mph - N/A   Clear
1:35 AM 49.8 °F 36.3 °F 60% 30.37 in 10.0 mi ESE 8.1 mph - N/A   Clear
1:55 AM 49.5 °F 36.1 °F 60% 30.36 in 10.0 mi ESE 8.1 mph - N/A   Clear
2:15 AM 49.3 °F 36.0 °F 60% 30.37 in 10.0 mi ESE 6.9 mph - N/A   Clear
2:35 AM 48.9 °F 35.8 °F 61% 30.36 in 10.0 mi ESE 5.8 mph - N/A   Clear
2:55 AM 48.4 °F 35.8 °F 62% 30.36 in 10.0 mi ESE 6.9 mph - N/A   Clear
3:15 AM 48.4 °F 35.6 °F 61% 30.36 in 10.0 mi ESE 6.9 mph - N/A   Clear
3:35 AM 48.2 °F 35.6 °F 62% 30.36 in 10.0 mi ESE 6.9 mph - N/A   Clear
3:55 AM 47.8 °F 35.2 °F 62% 30.36 in 10.0 mi ESE 6.9 mph - N/A   Clear
4:15 AM 47.5 °F 35.4 °F 63% 30.37 in 10.0 mi ESE 6.9 mph - N/A   Clear
4:35 AM 47.5 °F 35.2 °F 63% 30.36 in 10.0 mi ESE 9.2 mph - N/A   Clear
4:55 AM 47.3 °F 35.2 °F 63% 30.37 in 10.0 mi ESE 8.1 mph - N/A   Clear
5:15 AM 47.3 °F 35.2 °F 63% 30.36 in 10.0 mi ESE 10.4 mph - N/A   Clear
5:35 AM 47.3 °F 35.2 °F 63% 30.37 in 10.0 mi ESE 8.1 mph - N/A   Clear
5:55 AM 47.3 °F 35.2 °F 63% 30.37 in 10.0 mi ESE 8.1 mph - N/A   Clear
6:15 AM 47.3 °F 35.1 °F 62% 30.38 in 10.0 mi ESE 9.2 mph - N/A   Clear
6:35 AM 47.5 °F 34.9 °F 62% 30.38 in 10.0 mi ESE 8.1 mph - N/A   Mostly Cloudy
6:55 AM 47.8 °F 34.9 °F 61% 30.39 in 10.0 mi ESE 8.1 mph - N/A   Overcast
7:15 AM 48.4 °F 35.1 °F 60% 30.40 in 10.0 mi ESE 8.1 mph 18.4 mph N/A   Overcast
7:35 AM 48.9 °F 35.1 °F 59% 30.40 in 10.0 mi ESE 6.9 mph 18.4 mph N/A   Overcast
7:55 AM 49.3 °F 35.4 °F 59% 30.40 in 10.0 mi East 9.2 mph 17.3 mph N/A   Overcast
8:15 AM 49.8 °F 35.4 °F 58% 30.41 in 10.0 mi ESE 10.4 mph - N/A   Overcast
8:35 AM 50.2 °F 35.4 °F 57% 30.41 in 10.0 mi East 9.2 mph 17.3 mph N/A   Overcast
8:55 AM 51.1 °F 35.6 °F 55% 30.40 in 10.0 mi ESE 8.1 mph - N/A   Overcast
9:15 AM 51.6 °F 35.8 °F 55% 30.41 in 10.0 mi ESE 6.9 mph - N/A   Overcast
9:35 AM 52.0 °F 35.8 °F 54% 30.41 in 10.0 mi ESE 6.9 mph 16.1 mph N/A   Overcast
9:55 AM 52.7 °F 35.6 °F 52% 30.40 in 10.0 mi ESE 10.4 mph 17.3 mph N/A   Overcast
10:15 AM 53.1 °F 35.6 °F 52% 30.40 in 10.0 mi ESE 9.2 mph 16.1 mph N/A   Mostly Cloudy
10:35 AM 54.1 °F 36.0 °F 50% 30.40 in 10.0 mi ESE 5.8 mph - N/A   Mostly Cloudy
10:55 AM 54.9 °F 36.1 °F 49% 30.40 in 10.0 mi ESE 9.2 mph 17.3 mph N/A   Mostly Cloudy
11:15 AM 55.9 °F 36.7 °F 48% 30.40 in 10.0 mi ESE 6.9 mph - N/A   Mostly Cloudy
11:35 AM 57.2 °F 37.2 °F 47% 30.38 in 10.0 mi East 5.8 mph - N/A   Mostly Cloudy
11:55 AM 57.7 °F 37.8 °F 47% 30.38 in 10.0 mi SSE 5.8 mph - N/A   Scattered Clouds
12:15 PM 58.1 °F 38.3 °F 48% 30.36 in 10.0 mi ESE 5.8 mph - N/A   Scattered Clouds
12:35 PM 58.5 °F 38.5 °F 47% 30.36 in 10.0 mi SE 6.9 mph - N/A   Scattered Clouds
12:55 PM 59.2 °F 38.7 °F 47% 30.34 in 10.0 mi ESE 5.8 mph - N/A   Scattered Clouds
1:15 PM 59.2 °F 39.0 °F 47% 30.33 in 10.0 mi ESE 5.8 mph - N/A   Mostly Cloudy
1:35 PM 59.7 °F 39.4 °F 47% 30.32 in 10.0 mi ESE 6.9 mph - N/A   Mostly Cloudy
1:55 PM 60.4 °F 39.4 °F 46% 30.32 in 10.0 mi ESE 6.9 mph - N/A   Mostly Cloudy
2:15 PM 60.3 °F 39.4 °F 46% 30.31 in 10.0 mi ESE 5.8 mph - N/A   Mostly Cloudy
2:35 PM 59.9 °F 40.1 °F 48% 30.31 in 10.0 mi SE 5.8 mph - N/A   Scattered Clouds
2:55 PM 60.8 °F 40.5 °F 47% 30.30 in 10.0 mi ESE 6.9 mph - N/A   Clear
3:15 PM 62.8 °F 41.4 °F 45% 30.31 in 10.0 mi SSE 6.9 mph - N/A   Clear
3:35 PM 62.8 °F 41.9 °F 46% 30.31 in 10.0 mi ESE 3.5 mph - N/A   Clear
3:55 PM 62.4 °F 42.4 °F 48% 30.30 in 10.0 mi East 5.8 mph - N/A   Clear
4:15 PM 62.1 °F 42.8 °F 49% 30.30 in 10.0 mi ESE 4.6 mph - N/A   Scattered Clouds
4:35 PM 61.2 °F 42.8 °F 51% 30.30 in 10.0 mi ESE 3.5 mph - N/A   Mostly Cloudy
4:55 PM 59.7 °F 43.0 °F 54% 30.30 in 10.0 mi ESE 3.5 mph - N/A   Mostly Cloudy
5:15 PM 58.8 °F 43.2 °F 56% 30.30 in 10.0 mi ESE 4.6 mph - N/A   Mostly Cloudy
5:35 PM 58.1 °F 43.3 °F 58% 30.30 in 10.0 mi ESE 5.8 mph - N/A   Scattered Clouds
5:55 PM 57.6 °F 43.2 °F 59% 30.30 in 10.0 mi ESE 4.6 mph - N/A   Clear
6:15 PM 57.0 °F 43.0 °F 59% 30.31 in 10.0 mi ESE 5.8 mph - N/A   Clear
6:35 PM 56.5 °F 43.0 °F 61% 30.30 in 10.0 mi ESE 5.8 mph - N/A   Clear
6:55 PM 56.5 °F 42.8 °F 60% 30.30 in 10.0 mi ESE 4.6 mph - N/A   Clear
7:15 PM 56.3 °F 42.4 °F 60% 30.30 in 10.0 mi ESE 4.6 mph - N/A   Clear
7:35 PM 55.8 °F 42.1 °F 60% 30.30 in 10.0 mi Calm Calm - N/A   Clear
7:55 PM 55.2 °F 41.4 °F 60% 30.30 in 10.0 mi East 3.5 mph - N/A   Scattered Clouds
8:15 PM 55.4 °F 41.0 °F 58% 30.30 in 10.0 mi ESE 4.6 mph - N/A   Mostly Cloudy
8:35 PM 55.8 °F 40.8 °F 57% 30.30 in 10.0 mi East 4.6 mph - N/A   Overcast
8:55 PM 56.3 °F 40.8 °F 56% 30.30 in 10.0 mi ESE 5.8 mph - N/A   Overcast
9:15 PM 56.1 °F 40.6 °F 56% 30.30 in 10.0 mi SE 4.6 mph - N/A   Overcast
9:35 PM 55.6 °F 40.5 °F 57% 30.30 in 10.0 mi ESE 5.8 mph - N/A   Overcast
9:55 PM 55.4 °F 40.3 °F 57% 30.30 in 10.0 mi ESE 6.9 mph - N/A   Overcast
10:15 PM 55.2 °F 40.1 °F 57% 30.29 in 10.0 mi ESE 5.8 mph - N/A   Mostly Cloudy
10:35 PM 54.9 °F 39.7 °F 57% 30.30 in 10.0 mi SE 5.8 mph - N/A   Scattered Clouds
10:55 PM 55.0 °F 39.4 °F 56% 30.29 in 10.0 mi ESE 4.6 mph - N/A   Scattered Clouds
11:15 PM 54.9 °F 39.4 °F 56% 30.28 in 10.0 mi SE 4.6 mph - N/A   Clear
11:35 PM 54.9 °F 39.4 °F 56% 30.28 in 10.0 mi SE 5.8 mph - N/A   Clear
11:55 PM 54.7 °F 39.4 °F 56% 30.28 in 10.0 mi SE 6.9 mph - N/A   Clear